�������l�o���
Date,Time,MP-1(��Sv/h),MP-2(��Sv/h),MP-3(��Sv/h),MP-4(��Sv/h),MP-5(��Sv/h),MP-6(��Sv/h),MP-7(��Sv/h),MP-8(��Sv/h),����,����(m/s),���J
2019/10/14,00:00,0.707,0.999,0.668,1.240,0.858,0.409,0.711,0.675,�k�k��,5.5,��
2019/10/14,00:10,0.709,1.002,0.668,1.241,0.860,0.407,0.710,0.674,�k�k��,5.2,��
2019/10/14,00:20,0.710,0.998,0.669,1.240,0.862,0.408,0.712,0.676,�k�k��,5.2,��
2019/10/14,00:30,0.710,0.999,0.668,1.240,0.859,0.408,0.711,0.676,�k�k��,5.0,��
2019/10/14,00:40,0.708,1.002,0.668,1.241,0.860,0.409,0.709,0.676,�k�k��,5.5,��
2019/10/14,00:50,0.709,1.000,0.669,1.242,0.860,0.409,0.711,0.675,�k�k��,5.2,��
2019/10/14,01:00,0.709,1.002,0.669,1.239,0.860,0.408,0.713,0.675,�k�k��,4.6,��
2019/10/14,01:10,0.709,1.003,0.668,1.240,0.859,0.409,0.711,0.676,�k�k��,4.9,��
2019/10/14,01:20,0.710,1.002,0.669,1.242,0.860,0.410,0.710,0.675,�k�k��,4.0,��
2019/10/14,01:30,0.709,1.002,0.667,1.241,0.864,0.410,0.713,0.674,�k�k��,3.8,��
2019/10/14,01:40,0.709,1.002,0.670,1.241,0.862,0.411,0.711,0.675,�k�k��,4.2,��
2019/10/14,01:50,0.711,1.003,0.669,1.241,0.864,0.408,0.712,0.677,�k�k��,3.5,��
2019/10/14,02:00,0.709,1.001,0.668,1.244,0.862,0.409,0.712,0.678,�k�k��,3.8,��
2019/10/14,02:10,0.709,1.002,0.666,1.243,0.862,0.409,0.712,0.677,�k�k��,3.9,��
2019/10/14,02:20,0.708,1.003,0.670,1.241,0.861,0.409,0.711,0.676,�k�k��,4.0,��
2019/10/14,02:30,0.710,1.003,0.669,1.243,0.862,0.410,0.710,0.676,�k�k��,4.3,��
2019/10/14,02:40,0.709,1.002,0.668,1.242,0.862,0.409,0.710,0.675,�k�k��,3.8,��
2019/10/14,02:50,0.710,1.000,0.668,1.244,0.862,0.410,0.712,0.676,�k�k��,2.9,��
2019/10/14,03:00,0.709,1.001,0.670,1.242,0.864,0.409,0.711,0.676,�k�k��,3.3,��
2019/10/14,03:10,0.708,1.002,0.668,1.243,0.862,0.409,0.711,0.676,�k�k��,3.1,��
2019/10/14,03:20,0.711,1.003,0.669,1.244,0.863,0.410,0.712,0.676,�k�k��,3.3,��
2019/10/14,03:30,0.711,1.000,0.668,1.241,0.862,0.409,0.711,0.677,�k�k��,3.3,��
2019/10/14,03:40,0.710,1.000,0.668,1.241,0.862,0.411,0.711,0.676,�k�k��,3.4,��
2019/10/14,03:50,0.709,1.004,0.668,1.241,0.864,0.408,0.711,0.677,�k�k��,3.6,��
2019/10/14,04:00,0.710,1.002,0.669,1.243,0.863,0.409,0.712,0.676,�k�k��,3.4,��
2019/10/14,04:10,0.711,1.003,0.671,1.244,0.865,0.410,0.711,0.677,�k�k��,2.9,��
2019/10/14,04:20,0.709,1.003,0.668,1.246,0.864,0.409,0.712,0.676,�k�k��,2.8,��
2019/10/14,04:30,0.712,1.002,0.669,1.243,0.864,0.411,0.710,0.675,�k�k��,3.1,��
2019/10/14,04:40,0.709,1.003,0.669,1.242,0.865,0.409,0.712,0.677,�k�k��,2.6,��
2019/10/14,04:50,0.710,1.003,0.668,1.243,0.863,0.410,0.711,0.676,�k�k��,2.6,��
2019/10/14,05:00,0.709,1.003,0.670,1.243,0.863,0.409,0.712,0.677,�k�k��,2.6,��
2019/10/14,05:10,0.711,1.003,0.670,1.243,0.863,0.410,0.712,0.676,�k�k��,2.2,��
2019/10/14,05:20,0.710,1.005,0.669,1.244,0.864,0.410,0.713,0.677,�k�k��,2.3,��
2019/10/14,05:30,0.711,1.004,0.669,1.245,0.865,0.410,0.711,0.678,�k�k��,1.8,��
2019/10/14,05:40,0.710,1.003,0.669,1.242,0.864,0.411,0.714,0.677,�k�k��,2.4,��
2019/10/14,05:50,0.710,1.005,0.669,1.242,0.864,0.411,0.710,0.677,�k�k��,2.8,��
2019/10/14,06:00,0.710,1.003,0.669,1.245,0.866,0.410,0.711,0.677,�k,3.3,�L
2019/10/14,06:10,0.711,1.003,0.669,1.243,0.864,0.410,0.712,0.676,�k,3.1,�L
2019/10/14,06:20,0.711,1.004,0.668,1.244,0.866,0.411,0.713,0.676,�k,3.8,�L
2019/10/14,06:30,0.711,1.006,0.670,1.243,0.867,0.411,0.712,0.677,�k�k��,3.8,��
2019/10/14,06:40,0.710,1.003,0.670,1.244,0.865,0.412,0.711,0.677,�k�k��,3.8,��
2019/10/14,06:50,0.711,1.004,0.669,1.245,0.864,0.410,0.711,0.677,�k�k��,2.4,��
2019/10/14,07:00,0.711,1.004,0.670,1.245,0.865,0.409,0.711,0.677,�k�k��,2.7,��
2019/10/14,07:10,0.711,1.003,0.668,1.242,0.863,0.410,0.711,0.678,�k�k��,2.7,��
2019/10/14,07:20,0.711,1.003,0.670,1.246,0.866,0.410,0.711,0.676,�k�k��,3.2,��
2019/10/14,07:30,0.712,1.005,0.669,1.242,0.866,0.409,0.711,0.676,�k�k��,2.9,��
2019/10/14,07:40,0.710,1.005,0.670,1.244,0.866,0.410,0.711,0.677,�k��,2.2,��
2019/10/14,07:50,0.712,1.005,0.670,1.242,0.867,0.409,0.712,0.677,�k��,2.6,��
2019/10/14,08:00,0.712,1.004,0.669,1.242,0.865,0.409,0.710,0.677,�k��,3.8,��
2019/10/14,08:10,0.711,1.004,0.670,1.243,0.867,0.409,0.711,0.679,�k��,3.8,��
2019/10/14,08:20,0.711,1.006,0.671,1.244,0.866,0.409,0.710,0.676,�k��,2.8,��
2019/10/14,08:30,0.713,1.004,0.669,1.243,0.867,0.408,0.709,0.677,�k��,1.6,��
2019/10/14,08:40,0.711,1.006,0.669,1.243,0.863,0.410,0.712,0.678,�k��,1.5,��
2019/10/14,08:50,0.712,1.004,0.670,1.244,0.865,0.410,0.711,0.677,���k��,1.0,��
2019/10/14,09:00,0.712,1.005,0.673,1.243,0.867,0.408,0.712,0.677,���k��,0.8,��
2019/10/14,09:10,0.714,1.004,0.672,1.245,0.867,0.410,0.711,0.678,�k�k��,1.2,��
2019/10/14,09:20,0.709,1.005,0.670,1.242,0.867,0.411,0.711,0.677,-,CALM,��
2019/10/14,09:30,0.712,1.005,0.671,1.248,0.867,0.408,0.710,0.676,-,CALM,��
2019/10/14,09:40,0.711,1.003,0.672,1.244,0.866,0.409,0.711,0.677,���k��,0.7,�L
2019/10/14,09:50,0.711,1.001,0.671,1.244,0.866,0.409,0.710,0.676,��,0.5,�L
2019/10/14,10:00,0.712,1.003,0.671,1.246,0.867,0.410,0.712,0.674,�k�k��,0.8,�L
2019/10/14,10:10,0.712,1.003,0.671,1.244,0.864,0.409,0.710,0.676,���k��,0.6,��
2019/10/14,10:20,0.712,1.004,0.673,1.245,0.866,0.409,0.712,0.676,��,0.8,��
2019/10/14,10:30,0.711,1.004,0.670,1.244,0.868,0.410,0.711,0.676,��쓌,2.3,��
2019/10/14,10:40,0.710,1.002,0.667,1.247,0.864,0.409,0.713,0.677,�쓌,1.6,��
2019/10/14,10:50,0.710,1.001,0.668,1.244,0.866,0.408,0.712,0.676,���쓌,1.4,��
2019/10/14,11:00,0.709,1.001,0.668,1.243,0.864,0.407,0.714,0.675,��쓌,1.9,��
2019/10/14,11:10,0.710,1.002,0.668,1.244,0.868,0.408,0.713,0.676,��쓌,2.4,��
2019/10/14,11:20,0.712,1.003,0.668,1.247,0.868,0.409,0.713,0.674,��쓌,1.3,��
2019/10/14,11:30,0.711,1.004,0.667,1.247,0.867,0.409,0.713,0.676,��쓌,2.2,��
2019/10/14,11:40,0.711,1.004,0.668,1.244,0.867,0.407,0.712,0.675,��쓌,1.6,��
2019/10/14,11:50,0.711,1.004,0.667,1.243,0.868,0.409,0.712,0.676,��쓌,2.0,��
2019/10/14,12:00,0.713,1.004,0.670,1.244,0.869,0.409,0.712,0.673,��쓌,1.6,��
2019/10/14,12:10,0.711,1.008,0.668,1.247,0.868,0.411,0.713,0.675,��쓌,1.9,��
2019/10/14,12:20,0.712,1.007,0.670,1.245,0.868,0.409,0.713,0.676,�쓌,1.8,��
2019/10/14,12:30,0.711,1.007,0.670,1.242,0.867,0.409,0.714,0.675,��쓌,1.6,��
2019/10/14,12:40,0.712,1.009,0.669,1.247,0.867,0.409,0.713,0.674,��쓌,2.6,��
2019/10/14,12:50,0.713,1.008,0.668,1.245,0.870,0.410,0.712,0.676,��쓌,1.5,��
2019/10/14,13:00,0.711,1.008,0.668,1.249,0.870,0.410,0.713,0.675,��쓌,2.6,��
2019/10/14,13:10,0.712,1.008,0.667,1.248,0.869,0.409,0.714,0.676,�쓌,1.1,��
2019/10/14,13:20,0.714,1.007,0.668,1.245,0.869,0.409,0.713,0.677,���쓌,2.0,��
2019/10/14,13:30,0.713,1.009,0.669,1.247,0.869,0.408,0.713,0.674,�쓌,1.8,��
2019/10/14,13:40,0.711,1.007,0.668,1.248,0.870,0.410,0.714,0.675,�쓌,2.4,��
2019/10/14,13:50,0.713,1.008,0.670,1.249,0.870,0.410,0.713,0.675,���쓌,1.8,��
2019/10/14,14:00,0.713,1.006,0.671,1.250,0.870,0.409,0.714,0.676,���쓌,1.2,��
2019/10/14,14:10,0.712,1.006,0.669,1.248,0.869,0.409,0.712,0.675,��쓌,1.2,��
2019/10/14,14:20,0.713,1.009,0.670,1.246,0.869,0.409,0.712,0.675,��,1.1,��
2019/10/14,14:30,0.709,1.009,0.668,1.248,0.869,0.410,0.713,0.677,��,0.9,�L
2019/10/14,14:40,0.710,1.007,0.669,1.246,0.868,0.410,0.713,0.676,���k��,1.3,�L
2019/10/14,14:50,0.711,1.006,0.666,1.249,0.868,0.410,0.716,0.678,���쓌,0.9,�L
2019/10/14,15:00,0.709,1.006,0.669,1.248,0.870,0.411,0.712,0.676,���k��,0.8,�L
2019/10/14,15:10,0.711,1.007,0.670,1.247,0.869,0.411,0.712,0.674,���k��,0.8,�L
2019/10/14,15:20,0.711,1.009,0.671,1.248,0.870,0.412,0.713,0.676,�k�k��,0.6,�L
2019/10/14,15:30,0.712,1.007,0.672,1.247,0.870,0.411,0.714,0.675,���k��,1.5,�L
2019/10/14,15:40,0.712,1.009,0.671,1.249,0.871,0.411,0.712,0.676,��,0.8,�L
2019/10/14,15:50,0.711,1.008,0.671,1.248,0.870,0.412,0.712,0.676,���쓌,1.3,�L
2019/10/14,16:00,0.713,1.007,0.670,1.248,0.870,0.415,0.713,0.674,���쓌,1.0,�L
2019/10/14,16:10,0.710,1.004,0.668,1.246,0.868,0.413,0.712,0.676,�쓌,0.9,�L
2019/10/14,16:20,0.710,1.001,0.668,1.245,0.865,0.412,0.712,0.676,���쓌,1.1,�L
2019/10/14,16:30,0.707,0.996,0.666,1.242,0.859,0.413,0.708,0.674,�k��,1.3,�L
2019/10/14,16:40,0.704,0.991,0.667,1.236,0.858,0.413,0.708,0.673,-,CALM,�L
2019/10/14,16:50,0.703,0.991,0.666,1.237,0.857,0.413,0.707,0.672,-,CALM,�L
2019/10/14,17:00,0.702,0.988,0.665,1.235,0.856,0.410,0.708,0.670,��쓌,0.9,�L
2019/10/14,17:10,0.700,0.989,0.664,1.231,0.855,0.411,0.706,0.670,�쓌,1.2,�L
2019/10/14,17:20,0.697,0.981,0.662,1.225,0.850,0.411,0.705,0.669,�k��,3.3,�L
2019/10/14,17:30,0.696,0.977,0.663,1.221,0.846,0.409,0.703,0.666,�쓌,0.7,�L
2019/10/14,17:40,0.698,0.977,0.664,1.221,0.849,0.409,0.702,0.668,-,CALM,�L
2019/10/14,17:50,0.699,0.981,0.661,1.219,0.850,0.409,0.703,0.668,-,CALM,�L
2019/10/14,18:00,0.698,0.981,0.664,1.219,0.849,0.410,0.703,0.666,-,CALM,�L
2019/10/14,18:10,0.700,0.983,0.661,1.217,0.848,0.409,0.701,0.667,-,CALM,�L
2019/10/14,18:20,0.699,0.981,0.660,1.219,0.850,0.409,0.703,0.666,�k��,0.5,�L
2019/10/14,18:30,0.700,0.982,0.661,1.219,0.850,0.408,0.701,0.667,�k,0.8,�L
2019/10/14,18:40,0.699,0.981,0.661,1.216,0.849,0.407,0.704,0.667,�k�k��,0.8,�L
2019/10/14,18:50,0.698,0.979,0.661,1.220,0.850,0.408,0.701,0.666,�k�k��,1.0,�L
2019/10/14,19:00,0.698,0.980,0.659,1.217,0.849,0.408,0.702,0.668,�k�k��,1.1,�L
2019/10/14,19:10,0.697,0.978,0.660,1.215,0.846,0.408,0.701,0.667,�k��,0.7,�L
2019/10/14,19:20,0.699,0.977,0.659,1.219,0.848,0.408,0.701,0.666,�k�k��,1.3,�L
2019/10/14,19:30,0.698,0.977,0.661,1.214,0.848,0.408,0.703,0.666,�k�k��,1.7,�L
2019/10/14,19:40,0.696,0.979,0.661,1.212,0.847,0.408,0.701,0.666,�k,1.7,�L
2019/10/14,19:50,0.698,0.978,0.661,1.215,0.848,0.406,0.699,0.665,�k�k��,2.4,�L
2019/10/14,20:00,0.699,0.978,0.661,1.214,0.846,0.407,0.701,0.665,�k�k��,3.2,�L
2019/10/14,20:10,0.697,0.979,0.662,1.216,0.846,0.407,0.701,0.666,�k�k��,2.6,�L
2019/10/14,20:20,0.696,0.977,0.661,1.215,0.846,0.408,0.698,0.665,�k�k��,2.9,�L
2019/10/14,20:30,0.697,0.976,0.660,1.216,0.848,0.406,0.699,0.665,�k�k��,2.7,�L
2019/10/14,20:40,0.693,0.969,0.656,1.204,0.842,0.407,0.698,0.665,�k�k��,3.6,�L
2019/10/14,20:50,0.694,0.970,0.658,1.204,0.841,0.405,0.697,0.663,�k�k��,3.5,�L
2019/10/14,21:00,0.693,0.970,0.661,1.204,0.842,0.406,0.698,0.665,�k�k��,2.0,�L
2019/10/14,21:10,0.691,0.964,0.658,1.199,0.838,0.405,0.695,0.662,�k�k��,4.5,�L
2019/10/14,21:20,0.691,0.961,0.655,1.196,0.839,0.405,0.695,0.661,�k�k��,3.1,�L
2019/10/14,21:30,0.691,0.963,0.656,1.198,0.836,0.404,0.696,0.661,�k�k��,2.9,�L
2019/10/14,21:40,0.693,0.964,0.657,1.200,0.835,0.406,0.696,0.662,�k�k��,3.3,�L
2019/10/14,21:50,0.692,0.965,0.656,1.198,0.837,0.405,0.698,0.662,�k�k��,4.1,�L
2019/10/14,22:00,0.691,0.967,0.655,1.201,0.839,0.404,0.694,0.663,�k�k��,3.8,�L
2019/10/14,22:10,0.692,0.967,0.656,1.199,0.837,0.404,0.697,0.663,�k,4.4,�L
2019/10/14,22:20,0.692,0.963,0.657,1.198,0.837,0.403,0.697,0.663,�k�k��,5.2,�L
2019/10/14,22:30,0.693,0.964,0.658,1.201,0.838,0.404,0.698,0.664,�k�k��,4.9,�L
2019/10/14,22:40,0.692,0.967,0.656,1.201,0.838,0.404,0.696,0.663,�k�k��,4.9,�L
2019/10/14,22:50,0.691,0.967,0.656,1.202,0.838,0.404,0.697,0.661,�k�k��,3.9,�L
2019/10/14,23:00,0.693,0.967,0.656,1.201,0.838,0.405,0.697,0.661,�k�k��,3.4,�L
2019/10/14,23:10,0.693,0.969,0.656,1.201,0.838,0.404,0.697,0.662,�k�k��,4.6,�L
2019/10/14,23:20,0.693,0.965,0.656,1.198,0.836,0.404,0.696,0.661,�k�k��,5.5,�L
2019/10/14,23:30,0.692,0.966,0.656,1.200,0.837,0.405,0.697,0.663,�k�k��,6.0,�L
2019/10/14,23:40,0.693,0.968,0.659,1.199,0.835,0.405,0.697,0.662,�k�k��,4.6,�L
2019/10/14,23:50,0.694,0.970,0.658,1.201,0.838,0.404,0.698,0.662,�k�k��,4.7,�L
